Regional Weather Roundup
Issued by NWS Jackson, KY

Home | Current Version | Previous Version | Text Only | Print | Product List | Glossary Off
Versions: 1 2 3 4 5 6 7 8 9 10 11 12 13 14 15 16 17 18 19 20 21 22 23 24 25 26 27 28 29 30 31 32 33 34 35 36 37 38 39 40 41 42 43 44 45 46 47 48 49 50

000
ASUS43 KJKL 190510
RWRJKL

EAST KENTUCKY HOURLY WEATHER ROUNDUP
NATIONAL WEATHER SERVICE JACKSON KY
100 AM EDT SUN APR 19 2015

NOTE: "FAIR" INDICATES FEW OR NO CLOUDS BELOW 12,000 FEET WITH
NO SIGNIFICANT WEATHER AND/OR OBSTRUCTIONS TO VISIBILITY.

* THESE REPORTS ARE NOT UNDER NWS QUALITY CONTROL AND MAY NOT
  REPORT WEATHER SUCH AS PRECIPITATION AND FOG.

KYZ079-080-083-085-087-088-110-112-115-119-120-190600
...EASTERN KENTUCKY...

CITY           SKY/WX    TMP DP  RH WIND       PRES   REMARKS
JACKSON        PTCLDY    67  44  43 VRB3      29.93F
LONDON         CLOUDY    69  52  54 E5        29.92F
SOMERSET*      CLOUDY    64  54  68 SE3       29.92S
MONTICELLO*    CLOUDY    67  61  81 S5        29.94S
MIDDLESBORO*   CLOUDY    65  60  84 CALM      29.94S
HARLAN APT*    CLOUDY    66  52  59 SE3       29.94S
HAZARD APT*    CLEAR     66  48  52 CALM      29.93
BLACK MTN*       N/A     57  52  82 SW1         N/A
PIKEVILLE APT* MOCLDY    68  46  45 CALM      29.95F
BIG SANDY*     PTCLDY    64  47  53 CALM      29.95F
MOREHEAD APT*  CLOUDY    70  41  35 E9        29.96S
$$

KYZ035-036-041-042-044-050-067-078-099-190600
...CENTRAL KENTUCKY...

CITY           SKY/WX    TMP DP  RH WIND       PRES   REMARKS
MT STERLING*   MOCLDY    64  45  48 E8        29.95S
FLEMING/MASON* CLEAR     63  45  51 E8        29.96S
DANVILLE*      CLOUDY    63  52  67 E5        29.92F
RICHMOND*      CLOUDY    66  46  48 E6        29.91F
LEXINGTON      CLOUDY    68  45  43 E13       29.92F
FRANKFORT      CLOUDY    67  46  47 NE6       29.90F
$$

KYZ091>093-OHZ055-061-077-WVZ005-015-034-035-042-190600
...SOUTHERN OHIO/WEST VIRGINIA...

CITY           SKY/WX    TMP DP  RH WIND       PRES   REMARKS
COVINGTON      MOCLDY    66  44  45 E9        29.94F
COLUMBUS       MOCLDY    61  40  45 E12G21    30.01S
DAYTON         CLOUDY    60  45  57 NE13      30.00F
WILMINGTON     CLOUDY    61  47  59 E10       29.98F
HUNTINGTON     MOCLDY    66  43  43 NE7       29.94F
CHARLESTON     PTCLDY    64  46  52 NE7       29.96F
PINEVILLE*     PTCLDY    59  53  78 MISG      30.03F
BECKLEY        MOCLDY    65  48  54 SE8       30.02F
BLUEFIELD      PTCLDY    66  51  58 MISG      30.04S
$$

VAZ002-007-008-TNZ017-027-036-066-071-190600
...SOUTHWEST VIRGINIA/EAST TENNESSEE...

CITY           SKY/WX    TMP DP  RH WIND       PRES   REMARKS
WISE*          CLOUDY    63  52  67 SE3       30.01F
JONESVILLE*    MOCLDY    64  57  77 CALM      29.97S
ABINGDON*      PTCLDY    61  57  87 E5        29.99F
BRISTOL        CLOUDY    59  57  93 CALM      29.97S
KNOXVILLE      CLOUDY    64  63  96 NW3       29.92S
OAK RIDGE      CLOUDY    67  62  84 CALM      29.94S
CROSSVILLE     CLOUDY    64  59  83 CALM      29.94F
NASHVILLE      CLOUDY    65  63  93 CALM      29.84F
$$

...KEY TO REMARKS...
VSB - VISIBILITY IN MILES
WCI - WIND CHILL INDEX
HX  - HEAT INDEX

$$


USA.gov is the U.S. government's official web portal to all federal, state and local government web resources and services.